[Iaude] MPEC W107: 2023 WQ2 [a=1.42,e=0.27,i=23.1,H=24.6]

mpec at marsden.cfa.harvard.edu mpec at marsden.cfa.harvard.edu
Thu Nov 23 16:05:49 EST 2023


M.P.E.C. 2023-W107                            Issued 2023 November 23, 21:04 UT

     The Minor Planet Electronic Circulars contain information on unusual
         minor planets, routine data on comets and natural satellites,
         and occasional editorial announcements.  They are published
    on behalf of Division F of the International Astronomical Union by the
          Minor Planet Center, Smithsonian Astrophysical Observatory,
                          Cambridge, MA 02138, U.S.A.
			  
             Prepared using the Tamkin Foundation Computer Network

                              MPC at CFA.HARVARD.EDU
            URL https://www.minorplanetcenter.net/    ISSN 1523-6714

                                    2023 WQ2                                    


Observations:
     K23W02Q*1C2023 11 22.42783605 20 48.894+34 17 50.82         18.86GVEW107G96
     K23W02Q 1C2023 11 22.43326805 20 47.638+34 20 43.51         18.62GVEW107G96
     K23W02Q 1C2023 11 22.43867505 20 46.399+34 23 35.27         18.62GVEW107G96
     K23W02Q 1C2023 11 22.48115705 20 36.650+34 45 58.20               VEW107G96
     K23W02Q 1C2023 11 22.48145805 20 36.730+34 46 06.40               VEW107G96
     K23W02Q KC2023 11 22.49024105 20 34.770+34 50 41.90         18.66GVEW107I52
     K23W02Q KC2023 11 22.49339005 20 34.130+34 52 21.00         17.80GVEW107I52
     K23W02Q KC2023 11 22.49407305 20 33.940+34 52 42.10         19.14GVEW107I52
     K23W02Q KC2023 11 22.49476605 20 33.700+34 53 04.60         18.88GVEW107I52
     K23W02Q KC2023 11 22.49546105 20 33.620+34 53 26.40               VEW107I52
     K23W02Q KC2023 11 22.80490605 20 02.66 +37 34 16.5          18.7 GVEW107L01
     K23W02Q KC2023 11 22.80761905 20 02.13 +37 35 41.4          19.1 GVEW107L01
     K23W02Q KC2023 11 22.80786705 20 02.07 +37 35 49.9          19.2 GVEW107L01
     K23W02Q KC2023 11 22.86403 05 19 49.41 +38 05 15.8          18.6 VqEW107L04
     K23W02Q KC2023 11 22.86685 05 19 48.82 +38 06 43.3          18.9 VqEW107L04
     K23W02Q KC2023 11 22.86959 05 19 48.18 +38 08 09.1          18.7 VqEW107L04
     K23W02Q KC2023 11 22.90177605 19 43.29 +38 24 38.4          19.1 GVEW107203
     K23W02Q KB2023 11 22.90502705 19 44.16 +38 26 15.1          18.4 GXEW107958
     K23W02Q KB2023 11 22.90986205 19 43.12 +38 28 44.8          18.9 GXEW107958
     K23W02Q KC2023 11 22.91449705 19 40.44 +38 31 12.6          18.9 GVEW107203
     K23W02Q KB2023 11 22.91467305 19 42.02 +38 31 13.7          18.9 GXEW107958
     K23W02Q KB2023 11 22.92666805 19 37.52 +38 37 30.2          18.9 GWEW107130
     K23W02Q KB2023 11 22.93367005 19 35.88 +38 41 06.6          19.2 GWEW107130
     K23W02Q KC2023 11 22.93416905 19 36.00 +38 41 20.7                VEW107204
     K23W02Q KC2023 11 22.93792805 19 35.12 +38 43 16.7                VEW107204
     K23W02Q KB2023 11 22.94102005 19 34.19 +38 44 53.5          19.1 GWEW107130
     K23W02Q KC2023 11 22.94168305 19 34.26 +38 45 12.4          18.8 GVEW107204
     K23W02Q KC2023 11 22.96380605 19 29.959+38 56 09.82         18.5 GVEW107Z80
     K23W02Q KC2023 11 22.97684005 19 27.070+39 02 49.56         18.6 GVEW107Z80
     K23W02Q KB2023 11 23.05673 05 19 06.95 +39 43 45.8          19.1 VZEW107C95
     K23W02Q KB2023 11 23.05966 05 19 06.23 +39 45 13.2                ZEW107C95
     K23W02Q KC2023 11 23.22387105 18 43.92 +41 07 16.9          19.8 GVEW107H21
     K23W02Q KC2023 11 23.22483605 18 43.67 +41 07 45.7          19.7 GVEW107H21
     K23W02Q KC2023 11 23.22676405 18 43.19 +41 08 43.4          19.7 GVEW107H21
     K23W02Q KC2023 11 23.22869205 18 42.70 +41 09 41.0          20.2 GVEW107H21
     K23W02Q KC2023 11 23.23061905 18 42.22 +41 10 38.6                VEW107H21
     K23W02Q KC2023 11 23.23447705 18 41.24 +41 12 33.7          19.2 GVEW107H21
     K23W02Q KC2023 11 23.23640505 18 40.73 +41 13 31.1          19.9 GVEW107H21
     K23W02Q mC2023 11 23.52568205 17 30.347+43 33 35.96         19.29GVEW107I52
     K23W02Q mC2023 11 23.52585205 17 30.332+43 33 41.04         19.08GVEW107I52
     K23W02Q mC2023 11 23.52602205 17 30.311+43 33 45.61               VEW107I52
     K23W02Q mC2023 11 23.52619505 17 30.239+43 33 50.33               VEW107I52
     K23W02Q KC2023 11 23.78715005 17 02.99 +45 35 20.1          18.9 GVEW107L06
     K23W02Q KC2023 11 23.78773805 17 02.89 +45 35 36.6          19.3 GVEW107L06

Observer details:
130 Lumezzane.  Observers A. Coffano, W. Marinello, M. Micheli, G. Pizzetti,
    A. Soffiantini.  Measurer W. Marinello.  0.40-m f/6 reflector + CMO.
203 GiaGa Observatory.  Observers S. Foglia, G. Galli.  Measurer G. Galli.
    0.36-m f/5.76 Schmidt-Cassegrain + CCD.
204 Schiaparelli Observatory.  Observers L. Buzzi, G. Galli.  0.84-m f/3.5
    reflector + CCD.
958 Observatoire de Dax.  Observer P. Dupouy.  0.50-m f/4.5 Reflector + CMO.
C95 SATINO Remote Observatory, Haute Provence.  Observer D. Husar.  0.30-m
    f/5.8 reflector + CMO.
G96 Mt. Lemmon Survey.  Observer K. W. Wierzchos.  Measurers E. C. Beshore, D.
    Fay, J. B. Fazekas, D. C. Fuls, A. R. Gibbs, A. D. Grauer, H. Groeller, J.
    K. Hogan, R. A. Kowalski, S. M. Larson, G. J. Leonard, D. Rankin, R. L.
    Seaman, F. C. Shelly, K. W. Wierzchos.  1.5-m reflector + 10K CCD.
H21 Astronomical Research Observatory, Westfield.  Observer R. Holmes.
    Measurers T. Linder, R. Holmes, L. Horn.  0.76-m f/3.0 astrograph + CCD.
I52 Steward Observatory, Mt. Lemmon Station.  Observers R. A. Kowalski, K. W.
    Wierzchos.  Measurers E. C. Beshore, D. Fay, J. B. Fazekas, D. C. Fuls, A.
    R. Gibbs, A. D. Grauer, H. Groeller, J. K. Hogan, R. A. Kowalski, S. M.
    Larson, G. J. Leonard, D. Rankin, R. L. Seaman, F. C. Shelly, K. W.
    Wierzchos.  1.0-m prime focus + CCD.
L01 Visnjan Observatory, Tican.  Observer K. Korlevic.  1.0-m f/2.9 reflector
    + CCD.
L04 ROASTERR-1 Observatory, Cluj-Napoca.  Observer L. Hudin.  0.3-m f/5
    reflector + CCD.
L06 Sormano 2 Observatory, Bellagio Via Lattea.  Observers E. Valli, G.
    Ventre.  Measurer P. Sicoli.  0.36m Schmidt Cassegrain + CCD.
Z80 Northolt Branch Observatory.  Observer G. Wells.  Measurers G. Wells, D.
    Bamberger.  0.25-m f/8.0 Ritchey-Chretien + CCD.

Orbital elements:
2023 WQ2                                                 Earth MOID = 0.0415 AU
Epoch 2023 Sept. 13.0 TT = JDT 2460200.5                Veres                   
M 322.26555              (2000.0)            P               Q                  
n   0.58490996     Peri.  354.97848     +0.57764092     -0.74355858             
a   1.4160439      Node    59.31350     +0.76190848     +0.34302809             
e   0.2731800      Incl.   23.05847     +0.29296148     +0.57397941             
P   1.69           H   24.60          G   0.15           U   8                  
Residuals in seconds of arc
231122 G96  0.6+  0.4-    231122 L04  0.4-  0.7+    231123 C95  0.2-  0.2-
231122 G96  0.7+  0.2-    231122 203  0.0   0.0     231123 H21  0.1+  0.6+
231122 G96  0.9+  0.0     231122 958  0.6+  1.4+    231123 H21  0.0   0.5+
231122 G96  0.7-  1.3+    231122 958  0.5+  0.8+    231123 H21  0.1+  0.6+
231122 G96  1.1+  0.1+    231122 203  0.1-  0.3-    231123 H21  0.0   0.6+
231122 I52  0.6+  0.6-    231122 958  0.2-  0.3+    231123 H21  0.1+  0.6+
231122 I52  1.1+  0.4-    231122 130  0.4+  0.0     231123 H21  0.1+  0.4+
231122 I52  0.6+  0.7-    231122 130  0.1+  0.1+    231123 H21  0.1-  0.3+
231122 I52  0.5-  0.0     231122 204  0.3+  0.5+    231123 I52  0.3-  0.0
231122 I52  0.4+  0.0     231122 204  0.2+  0.6+    231123 I52  0.0   0.3+
231122 L01  0.1+  0.0     231122 130  0.3+  0.3+    231123 I52  0.2+  0.2+
231122 L01  0.2-  0.4-    231122 204  0.3+  0.4+    231123 I52  0.1-  0.0
231122 L01  0.4-  0.3+    231122 Z80  0.2-  0.2-    231123 L06  0.2-  0.0
231122 L04  0.4-  0.4+    231122 Z80  0.7+  0.7-    231123 L06  0.0   0.2-
231122 L04  0.0   0.2+    231123 C95  0.3-  0.7+

Ephemeris:
2023 WQ2                 a,e,i = 1.42, 0.27, 23                  q = 1.0292
Date    TT    R. A. (2000) Decl.     Delta      r    Elong.  Phase     V
2023 10 24    05 30 18.9 -54 39 30   0.2088  1.0498    99.5    69.2    23.7
...
2023 11 08    05 35 12.0 -43 00 44   0.1073  1.0320   109.6    64.8    22.1
...
2023 11 16    05 31 36.0 -18 10 07   0.05905 1.0292   131.5    46.0    20.3
...
2023 11 22    05 22 00.0 +30 26 03   0.04626 1.0303   156.3    22.7    19.1
2023 11 23    05 19 18.6 +39 14 57   0.04811 1.0308   153.2    25.6    19.2
2023 11 24    05 16 08.4 +47 13 11   0.05102 1.0313   148.6    29.9    19.5
...
2023 11 30    04 37 50.7 +75 58 50   0.08194 1.0361   125.5    50.8    21.1
...
2023 12 08    23 52 11.9 +86 29 56   0.1354  1.0464   113.4    59.8    22.5
...
2023 12 23    19 37 51.1 +82 50 26   0.2384  1.0773   106.9    60.9    23.8

M. P. C. Staff               (C) Copyright 2023 MPC           M.P.E.C. 2023-W107




More information about the Iaude mailing list